Regional Weather Roundup
Issued by NWS

Home | Current Version | Previous Version | Text Only | Print | Product List | Glossary On
Versions: 1 2 3 4 5 6 7 8 9 10 11 12 13 14 15 16 17 18 19 20 21 22 23 24 25 26 27 28 29 30 31 32 33 34 35 36 37 38 39 40 41 42 43 44 45 46 47 48 49 50
496
ASUS44 KJAN 221310
RWRMS

MISSISSIPPI HOURLY WEATHER ROUNDUP
NATIONAL WEATHER SERVICE JACKSON MS
800 AM CDT TUE APR 22 2014

NOTE: "FAIR: INDICATES FEW OR NO CLOUDS BELOW 12,000 FEET WITH NO
SIGNIFICANT WEATHER AND/OR OBSTRUCTIONS TO VISIBILITY.

MSZ001>002-007>008-010>013-018>021-025>028-034>036-221400-
NORTHWEST MISSISSIPPI

CITY           SKY/WX    TMP DP  RH WIND       PRES   REMARKS
CLARKSDALE       N/A     64  64 100 CALM      29.95S
CLEVELAND      CLOUDY    64  64 100 CALM      29.94S FOG
GREENWOOD      LGT RAIN  63  62  97 NE3       29.94S FOG
GREENVILLE     CLOUDY    65  63  93 N5        29.94S FOG
GRENADA        CLOUDY    61  61 100 CALM      29.95R
OLIVE BRANCH   PTSUNNY   61  61 100 NW5       29.94R
OXFORD         PTSUNNY   61  59  94 CALM      29.96S FOG
TUNICA         SUNNY     64  61  88 NW8       29.95R
$$

MSZ003>006-009-014>017-022>024-029>033-037>039-221400-
NORTHEAST MISSISSIPPI

CITY           SKY/WX    TMP DP  RH WIND       PRES   REMARKS
BELMONT        CLOUDY    63  61  94 CALM      29.93R
COLUMBUS AFB   CLOUDY    63  63 100 SW5       29.94S
CORINTH        FAIR      63  61  94 NW3       29.93R
GOLDN TRIANGLE LGT RAIN  61  57  88 S5        29.97S FOG
STARKVILLE     CLOUDY    61  59  94 CALM      29.95S FOG
TUPELO         CLOUDY    63  61  93 CALM      29.93R
$$

MSZ040-058-221400-
CENTRAL MISSISSIPPI

CITY           SKY/WX    TMP DP  RH WIND       PRES   REMARKS
JACKSON INTL   CLOUDY    63  61  93 S5        29.95S
JACKSON HAWKNS CLOUDY    64  60  87 CALM      29.95S FOG
MERIDIAN KEY   CLOUDY    60  58  92 CALM      29.97R
MERIDIAN NAS   LGT RAIN  62  59  90 W6        29.96S FOG
RAYMOND        CLOUDY    63  57  82 CALM      29.95R HAZE
VICKSBURG      CLOUDY    66  63  90 SW5       29.93S
$$

MSZ059>079-221400-
SOUTH MISSISSIPPI

CITY           SKY/WX    TMP DP  RH WIND       PRES   REMARKS
BROOKHAVEN     CLOUDY    64  63  94 SW7       29.98R FOG
COLUMBIA       CLOUDY    63  61  94 MISG      29.96F FOG
HATTIESBURG    NOT AVBL
MCCOMB         LGT RAIN  63  62  97 W7        29.98R FOG
NATCHEZ        CLOUDY    64  63  94 W8        29.96S
PINE BELT      CLOUDY    61  57  88 W7        29.99R
$$

MSZ080>082-221400-
COASTAL MISSISSIPPI

CITY           SKY/WX    TMP DP  RH WIND       PRES   REMARKS
BILOXI         CLOUDY    64  63  97 VRB3      30.00R
PASCAGOULA     NOT AVBL
GULFPORT       CLOUDY    64  60  87 W5        29.99R HAZE
$$



USA.gov is the U.S. government's official web portal to all federal, state and local government web resources and services.